Powrót do katalogu

STARLINK-5403

AktywnyŁącznośćVLEO
NORAD 54862·PAYLOAD·🇺🇸 United States

Wystrzelony Dec 28, 2022 z Cape Canaveral Space Force Station

Loading…

Następne Przeloty (najbliższe 24 godziny)

TLE

ŚwieżeSource: CelesTrak SupGP

Epoka: Sep 14, 2026, 20:59 UTC

1 54862C 22177AU  26257.87479167 -.00033505  00000+0 -12138-2 0  2576
2 54862  42.9996 133.1406 0001239 258.5464 133.7469 15.27587919    11

Śledź STARLINK-5403 w czasie rzeczywistym z AllMySat

Download on the App Store